CW8014 Weather Reports


Display with metric or nautical units.
time (UTC)temp
F
wind
direction
speed
MPH
gust
MPH
rain 1hr
in
rain 24hr
in
rain mn
in
humidity
%
barometer
mb
20260831214409 60 302 3.0 8.0 0.00 0.17 0.17 94 1013.9
20260831213411 60 242 3.0 8.0 0.00 0.17 0.17 94 1013.9
20260831212409 60 277 3.0 11.0 0.00 0.17 0.17 94 1013.8
20260831210409 60 226 4.0 8.0 0.00 0.17 0.17 94 1013.6
20260831205409 60 258 3.0 10.0 0.00 0.17 0.17 94 1013.4
20260831204409 60 241 3.0 11.0 0.00 0.17 0.17 94 1013.3
20260831203409 60 240 3.0 8.0 0.00 0.17 0.17 94 1013.3
20260831202409 60 238 3.0 7.0 0.00 0.17 0.17 93 1013.2
20260831200409 60 237 6.0 11.0 0.00 0.17 0.17 93 1012.8
20260831195409 61 279 4.0 11.0 0.00 0.17 0.17 93 1012.6
20260831193409 61 288 4.0 10.0 0.00 0.17 0.17 92 1012.2
20260831192409 61 270 4.0 11.0 0.00 0.17 0.17 91 1012.1
20260831191409 61 279 3.0 11.0 0.00 0.17 0.17 91 1012.0
20260831190409 61 171 5.0 12.0 0.00 0.17 0.17 91 1012.0
20260831185409 61 274 4.0 12.0 0.00 0.17 0.17 90 1011.7
20260831184409 61 263 4.0 9.0 0.00 0.17 0.17 90 1011.5
20260831183409 62 229 5.0 14.0 0.00 0.17 0.17 89 1011.4
20260831182409 62 274 6.0 12.0 0.00 0.17 0.17 88 1011.1
20260831181410 62 271 5.0 12.0 0.00 0.17 0.17 86 1011.0
20260831180409 63 229 6.0 17.0 0.00 0.17 0.17 86 1010.9
20260831175409 63 258 5.0 11.0 0.00 0.17 0.17 85 1010.7
20260831173409 64 239 6.0 15.0 0.00 0.17 0.17 85 1010.5
20260831172409 64 266 5.0 12.0 0.00 0.17 0.17 84 1010.5
20260831171409 64 326 8.0 17.0 0.00 0.17 0.17 85 1010.4
20260831170410 64 286 5.0 15.0 0.00 0.17 0.17 86 1010.2
20260831164409 63 242 6.0 15.0 0.00 0.19 0.17 86 1010.0
20260831163409 63 286 5.0 16.0 0.00 0.19 0.17 86 1010.1
20260831162409 63 250 6.0 18.0 0.00 0.19 0.17 85 1010.0
20260831161409 63 234 8.0 16.0 0.00 0.19 0.17 85 1009.8
20260831160409 63 248 6.0 13.0 0.00 0.19 0.17 85 1009.7
20260831155409 63 223 5.0 15.0 0.00 0.19 0.17 85 1009.7
20260831154409 63 257 9.0 21.0 0.00 0.19 0.17 84 1009.6
20260831152409 63 201 5.0 13.0 0.08 0.19 0.17 90 1009.3
20260831151409 62 234 6.0 16.0 0.08 0.19 0.17 90 1009.2
20260831150409 63 78 4.0 11.0 0.08 0.19 0.17 92 1009.1
20260831145409 62 155 3.0 10.0 0.08 0.19 0.17 92 1009.2
20260831144409 63 219 5.0 11.0 0.08 0.19 0.17 87 1008.9
20260831142404 66 178 7.0 14.0 0.00 0.11 0.09 83 1008.8
20260831140404 64 176 4.0 13.0 0.01 0.11 0.09 87 1008.9
20260831135405 63 186 5.0 11.0 0.01 0.11 0.09 87 1009.0
20260831134404 62 212 6.0 16.0 0.01 0.11 0.09 89 1008.9
20260831133404 61 169 6.0 13.0 0.02 0.11 0.09 89 1008.8
20260831132404 61 170 6.0 13.0 0.03 0.11 0.09 87 1008.8
20260831131404 62 181 5.0 11.0 0.02 0.10 0.08 85 1009.0
20260831130404 62 232 4.0 13.0 0.02 0.10 0.08 85 1008.9
20260831125404 62 227 4.0 11.0 0.02 0.10 0.08 87 1008.7
20260831124404 63 267 6.0 13.0 0.02 0.10 0.08 84 1008.5
20260831123404 67 343 7.0 19.0 0.04 0.09 0.06 81 1008.5
20260831122404 67 173 7.0 15.0 0.05 0.08 0.06 85 1008.2
20260831121404 65 213 8.0 19.0 0.05 0.08 0.06 88 1008.1
20260831120404 62 140 5.0 10.0 0.05 0.08 0.06 89 1008.0
20260831115404 62 174 6.0 12.0 0.05 0.08 0.06 89 1008.3
20260831113404 67 200 10.0 27.0 0.02 0.05 0.02 82 1008.2
20260831112405 69 173 8.0 23.0 0.00 0.03 0.01 74 1007.8
20260831111404 71 126 10.0 18.0 0.00 0.03 0.01 71 1007.6
20260831110404 70 170 8.0 16.0 0.00 0.03 0.01 72 1007.6
20260831105404 71 168 8.0 21.0 0.00 0.11 0.01 71 1007.8
20260831104404 70 165 6.0 16.0 0.00 0.11 0.01 74 1007.9
20260831103404 69 199 6.0 13.0 0.00 0.11 0.01 77 1008.0
20260831102404 68 159 8.0 24.0 0.00 0.11 0.01 76 1008.1
20260831101404 68 177 8.0 22.0 0.00 0.11 0.01 76 1008.2
20260831100404 68 166 8.0 19.0 0.00 0.11 0.01 78 1008.2
20260831094404 68 194 7.0 16.0 0.00 0.11 0.01 77 1008.1
20260831093406 68 185 6.0 12.0 0.00 0.11 0.01 79 1008.1
20260831092404 68 262 6.0 12.0 0.00 0.11 0.01 79 1008.1
20260831091404 67 189 8.0 16.0 0.00 0.11 0.01 79 1008.1
20260831090404 67 166 6.0 16.0 0.00 0.11 0.01 80 1007.9
20260831084404 66 257 6.0 14.0 0.00 0.11 0.01 83 1008.2
20260831083404 66 166 7.0 17.0 0.00 0.11 0.01 83 1008.1
20260831081404 65 175 6.0 17.0 0.00 0.11 0.01 86 1008.3
20260831080404 65 172 6.0 16.0 0.00 0.11 0.01 86 1008.4
20260831075404 65 186 7.0 19.0 0.00 0.12 0.01 86 1008.4
20260831073404 65 193 4.0 11.0 0.00 0.12 0.01 87 1008.4
20260831071404 65 145 6.0 12.0 0.00 0.12 0.01 88 1008.3
20260831070404 64 178 5.0 12.0 0.00 0.12 0.01 88 1008.3
20260831065404 64 197 3.0 12.0 0.00 0.12 0.01 89 1008.2
20260831064404 64 222 4.0 10.0 0.00 0.12 0.01 90 1008.2
20260831063404 63 187 4.0 10.0 0.00 0.12 0.01 91 1008.1
20260831062404 63 140 4.0 8.0 0.00 0.12 0.01 92 1008.1
20260831055404 61 188 4.0 9.0 0.00 0.13 0.01 93 1008.0
20260831053404 61 155 3.0 8.0 0.00 0.13 0.01 93 1008.1
20260831052404 61 213 2.0 7.0 0.00 0.13 0.01 93 1008.0
20260831051405 61 171 3.0 6.0 0.00 0.13 0.01 94 1008.0
20260831045404 61 168 3.0 6.0 0.01 0.13 0.01 94 1008.0
20260831043404 61 146 3.0 6.0 0.01 0.13 0.01 93 1008.1
20260831042409 61 163 3.0 7.0 0.01 0.13 0.01 93 1008.0
20260831034409 61 148 3.0 7.0 0.00 0.13 0.00 94 1008.1
20260831033409 61 169 3.0 5.0 0.00 0.13 0.00 94 1008.2
20260831032409 61 170 3.0 7.0 0.00 0.13 0.00 94 1008.1
20260831030409 61 173 4.0 9.0 0.00 0.13 0.00 94 1008.2
20260831025409 61 155 4.0 10.0 0.00 0.13 0.00 94 1008.2
20260831024409 60 161 4.0 7.0 0.00 0.13 0.00 95 1008.4
20260831023409 60 171 4.0 7.0 0.00 0.13 0.00 95 1008.5
20260831022409 60 165 3.0 6.0 0.00 0.13 0.00 95 1008.4
20260831021410 60 168 3.0 7.0 0.00 0.13 0.00 95 1008.3
20260831020409 60 167 3.0 6.0 0.00 0.13 0.00 95 1008.6
20260831015409 61 162 4.0 9.0 0.00 0.14 0.00 95 1008.6
20260831014409 61 173 3.0 7.0 0.00 0.14 0.00 95 1008.7
20260831013409 61 152 3.0 8.0 0.00 0.14 0.00 96 1008.8
20260831012409 61 150 3.0 6.0 0.00 0.14 0.00 96 1009.0
20260831010409 61 159 4.0 7.0 0.00 0.14 0.00 96 1009.3
20260831005409 61 165 4.0 7.0 0.00 0.14 0.00 96 1009.3
20260831004410 61 161 3.0 8.0 0.00 0.14 0.00 97 1009.3
20260831003409 61 144 3.0 5.0 0.00 0.14 0.00 97 1009.4
20260831002410 61 146 2.0 4.0 0.00 0.14 0.00 97 1009.3
20260831001411 61 156 2.0 5.0 0.00 0.14 0.00 97 1009.5
20260831000410 61 144 3.0 6.0 0.00 0.14 0.00 96 1009.5
20260830235409 60 161 2.0 5.0 0.00 0.14 0.00 96 1009.6
20260830234409 61 151 2.0 3.0 0.00 0.14 0.00 97 1009.6
20260830232409 61 161 2.0 5.0 0.00 0.14 0.00 97 1010.0
20260830231410 62 159 2.0 5.0 0.00 0.14 0.00 97 1010.1
20260830230409 62 174 2.0 4.0 0.00 0.14 0.00 97 1010.2
20260830225409 62 144 3.0 5.0 0.00 0.15 0.00 97 1010.3
20260830224410 62 149 2.0 4.0 0.00 0.15 0.00 97 1010.5
20260830223409 62 145 2.0 3.0 0.00 0.15 0.00 97 1010.6
20260830222409 62 153 1.0 3.0 0.00 0.15 0.00 97 1010.8
20260830221410 62 155 2.0 3.0 0.00 0.15 0.00 97 1010.8
20260830220410 62 148 2.0 4.0 0.00 0.15 0.00 97 1010.8
20260830215410 62 151 2.0 3.0 0.00 0.17 0.17 97 1010.9